Miscellaneous Local Product
Issued by NWS North Platte, NE

Home | Current Version | Previous Version | Text Only | Print | Product List | Glossary On
Versions: 1 2 3 4 5 6 7 8 9 10 11 12 13 14 15 16 17 18 19 20 21 22 23 24 25 26 27 28 29 30 31 32 33 34 35 36 37 38 39 40 41 42 43 44 45 46 47 48 49 50
273
AXUS43 KLBF 222010
MISLBF


WESTERN AND NORTH CENTRAL NEBRASKA HOURLY WEATHER ROUNDUP
NATIONAL WEATHER SERVICE NORTH PLATTE NE
300 PM CDT WED MAR 22 2017

NOTE: "FAIR" INDICATES FEW OR NO CLOUDS BELOW 12,000 FEET WITH NO
SIGNIFICANT WEATHER AND/OR OBSTRUCTIONS TO VISIBILITY.

NOTE: STATIONS NOT REPORTING VARIABLES SUCH AS SKY/WEATHER OR
PRESSURE ARE PROVIDED BY RAWS AND APRS NETWORKS AND ARE NOT UNDER
NATIONAL WEATHER SERVICE QUALITY CONTROL.

...OBSERVATIONS IN AND NEAR THE EASTERN PANHANDLE OF NEBRASKA...

CITY           SKY/WX    TMP DP  RH WIND       PRES   REMARKS
PINE RIDGE     CLOUDY    60  39  45 S16G31    29.87F
CHADRON        CLOUDY    64  36  35 S18       29.84F
ALLIANCE       CLOUDY    60  35  39 S23G29    29.91F
SIDNEY         SUNNY     62  35  36 S20       29.95F
CRESCENT LAKE    N/A     57  35  44 S14G22      N/A
$$

...OBSERVATIONS IN NORTHERN NEBRASKA AND FAR SOUTHERN SOUTH DAKOTA...

CITY           SKY/WX    TMP DP  RH WIND       PRES   REMARKS
WINNER         FAIR      50  31  48 S24G36    30.01F
VALENTINE      CLOUDY    53  30  41 S24G38    29.98F
THEDFORD       PTSUNNY   50  31  48 S25G33    30.04F
AINSWORTH      CLOUDY    47  30  50 S24G31    30.04F
O`NEILL          N/A    N/A N/A N/A MISG        N/A
ORD            CLOUDY    48  19  31 SE18G26   30.13F
BROKEN BOW     CLOUDY    49  24  37 S23G30    30.10F
VALENTINE NWR    N/A     49  31  51 S22G30      N/A
HALSEY           N/A     46  27  47 S14G25      N/A
BUTTE            N/A     39  29  67 SE24G31     N/A  WCI  28
CHAMBERS         N/A     53  28  38 S5G12       N/A
EWING            N/A     46  26  45 SE9G18      N/A
$$

...OBSERVATIONS IN SOUTHWEST NEBRASKA AND FAR NORTHEAST COLORADO...

CITY           SKY/WX    TMP DP  RH WIND       PRES   REMARKS
WRAY           FAIR      59  34  38 S20G28    30.02
HOLYOKE        FAIR      61  36  39 SE21      29.98F
IMPERIAL       SUNNY     58  34  40 SE21G31   30.00F
OGALLALA       SUNNY     61  37  40 S21       29.99F
NORTH PLATTE   CLOUDY    49  28  44 S16G25    30.07F
MCCOOK         CLOUDY    51  31  46 S18       30.09F
LEXINGTON      CLOUDY    50  26  40 S17G23    30.11F
STAPLETON        N/A     47  29  49 MISG        N/A
GOTHENBURG       N/A     43  25  48 SE12        N/A
CALLAWAY         N/A     43  27  53 S21         N/A
$$

...OBSERVATIONS IN CENTRAL LINCOLN COUNTY AREA...

CITY           SKY/WX    TMP DP  RH WIND       PRES   REMARKS
N.P. AIRPORT   CLOUDY    49  28  44 S16G25    30.07F
N.P. DOWNTOWN    N/A     49  31  51 S9G18       N/A
N.P. SOUTHEAST   N/A     48  29  47 S13G23      N/A
N.P. HILLCREST   N/A     49  31  50 S16G25      N/A
$$

...SOME OBSERVATIONS FROM AROUND THE REGION...

CITY           SKY/WX    TMP DP  RH WIND       PRES   REMARKS
DENVER         PTSUNNY   69  34  27 E8        29.89F
LIMON          SUNNY     65  37  35 SE20      29.98F
ASPEN          CLOUDY    58  21  24 S12G20    30.09F
LARAMIE        CLOUDY    64  18  17 SW33G41   29.94F
GILLETTE         N/A     60  39  45 N14       29.83R
CHEYENNE       SUNNY     66  31  27 S14       29.92F
SCOTTSBLUFF    SUNNY     64  33  31 SE15G22   29.88F
GRAND ISLAND   CLOUDY    52  22  30 S20G26    30.17F
OMAHA          PTSUNNY   51  18  27 SE20      30.29F
SIOUX FALLS    CLOUDY    36  22  56 SE18G24   30.27F WCI  26
PIERRE         SUNNY     50  31  48 S28G39    29.96F
RAPID CITY     CLOUDY    64  39  39 S21       29.76F
BISMARCK       CLOUDY    47  28  47 S24G32    29.96F
KANSAS CITY    CLOUDY    55  25  31 E15       30.29F
HILL CITY      CLOUDY    54  31  41 S12G24    30.13F
WICHITA        CLOUDY    55  34  45 SE10      30.17F
DODGE CITY     CLOUDY    57  34  41 SE15G22   30.11F
OKLAHOMA CITY  MOSUNNY   72  52  49 SE6G18    30.09F
DALLAS         PTSUNNY   84  63  49 S15       30.05F
AMARILLO       CLOUDY    65  46  50 SE10      30.10F
$$




USA.gov is the U.S. government's official web portal to all federal, state and local government web resources and services.